CW4086 Weather Reports


time (UTC)temp
C
wind
direction
speed
KPH
gust
KPH
rain 1hr
cm
rain 24hr
cm
rain mn
cm
humidity
%
barometer
mb
20260831231603 32 256 6.4 19.3 0.00 0.00 0.00 24 1011.5
20260831231104 32 268 9.7 19.3 0.00 0.00 0.00 23 1011.5
20260831230107 32 237 9.7 16.1 0.00 0.00 0.00 23 1011.6
20260831225106 32 276 1.6 12.9 0.00 0.00 0.00 25 1011.6
20260831224604 31 262 8.0 11.3 0.00 0.00 0.00 26 1011.6
20260831224104 31 267 6.4 12.9 0.00 0.00 0.00 24 1011.9
20260831223604 31 281 6.4 12.9 0.00 0.00 0.00 24 1011.9
20260831223104 31 255 4.8 12.9 0.00 0.00 0.00 23 1011.9
20260831221604 32 269 4.8 12.9 0.00 0.00 0.00 22 1012.0
20260831220604 31 263 8.0 14.5 0.00 0.00 0.00 22 1012.1
20260831215104 31 275 8.0 12.9 0.00 0.00 0.00 24 1012.1
20260831214604 32 252 8.0 12.9 0.00 0.00 0.00 23 1012.1
20260831214104 31 271 6.4 19.3 0.00 0.00 0.00 24 1012.1
20260831212604 32 262 8.0 19.3 0.00 0.00 0.00 22 1012.3
20260831212103 31 276 6.4 19.3 0.00 0.00 0.00 22 1012.3
20260831211604 31 264 8.0 19.3 0.00 0.00 0.00 21 1012.6
20260831211104 31 274 4.8 12.9 0.00 0.00 0.00 21 1012.5
20260831210604 31 284 4.8 12.9 0.00 0.00 0.00 22 1012.6
20260831210106 31 270 4.8 14.5 0.00 0.00 0.00 21 1012.7
20260831205108 31 266 4.8 12.9 0.00 0.00 0.00 21 1012.7
20260831204604 31 265 8.0 11.3 0.00 0.00 0.00 20 1012.7
20260831204104 31 260 8.0 11.3 0.00 0.00 0.00 20 1012.7
20260831203604 31 280 6.4 14.5 0.00 0.00 0.00 22 1012.7
20260831202604 31 254 4.8 14.5 0.00 0.00 0.00 23 1012.6
20260831202104 31 276 8.0 11.3 0.00 0.00 0.00 23 1012.6
20260831201604 31 285 8.0 11.3 0.00 0.00 0.00 23 1012.6
20260831201104 31 265 4.8 11.3 0.00 0.00 0.00 24 1012.7
20260831200604 30 263 6.4 11.3 0.00 0.00 0.00 25 1012.7
20260831200104 30 287 8.0 12.9 0.00 0.00 0.00 24 1012.7
20260831195604 31 304 8.0 14.5 0.00 0.00 0.00 23 1012.8
20260831195104 31 243 4.8 14.5 0.00 0.00 0.00 21 1012.8
20260831194604 31 259 6.4 11.3 0.00 0.00 0.00 21 1012.8
20260831194105 31 273 6.4 11.3 0.00 0.00 0.00 22 1012.9
20260831193604 31 271 4.8 11.3 0.00 0.00 0.00 22 1012.9
20260831193104 30 221 6.4 14.5 0.00 0.00 0.00 21 1013.0
20260831192604 30 269 8.0 14.5 0.00 0.00 0.00 24 1013.0
20260831192104 30 281 4.8 11.3 0.00 0.00 0.00 27 1013.0
20260831191604 30 270 8.0 11.3 0.00 0.00 0.00 28 1013.1
20260831191104 29 298 6.4 11.3 0.00 0.00 0.00 26 1013.1
20260831190604 29 271 3.2 9.7 0.00 0.00 0.00 27 1013.1
20260831190106 29 273 8.0 9.7 0.00 0.00 0.00 29 1013.0
20260831185604 29 243 4.8 11.3 0.00 0.00 0.00 31 1013.1
20260831185107 28 281 4.8 11.3 0.00 0.00 0.00 31 1013.1
20260831184604 28 259 1.6 11.3 0.00 0.00 0.00 32 1013.1
20260831184103 28 268 3.2 8.0 0.00 0.00 0.00 32 1013.1
20260831183604 28 253 4.8 9.7 0.00 0.00 0.00 32 1013.2
20260831183103 28 291 3.2 11.3 0.00 0.00 0.00 32 1013.2
20260831182604 28 283 4.8 12.9 0.00 0.00 0.00 33 1013.2
20260831182106 28 297 4.8 12.9 0.00 0.00 0.00 35 1013.2
20260831181104 27 272 4.8 9.7 0.00 0.00 0.00 38 1013.1
20260831180604 27 283 4.8 9.7 0.00 0.00 0.00 38 1013.2
20260831180104 27 274 4.8 9.7 0.00 0.00 0.00 41 1013.1
20260831175104 26 286 3.2 9.7 0.00 0.00 0.00 43 1013.0
20260831174604 26 275 4.8 9.7 0.00 0.00 0.00 44 1013.0
20260831174104 26 280 4.8 8.0 0.00 0.00 0.00 43 1013.0
20260831173604 26 255 4.8 8.0 0.00 0.00 0.00 45 1013.0
20260831173103 26 260 3.2 8.0 0.00 0.00 0.00 45 1013.1
20260831172603 26 271 3.2 8.0 0.00 0.00 0.00 48 1013.1
20260831172104 25 279 4.8 8.0 0.00 0.00 0.00 46 1013.1
20260831171604 25 314 1.6 8.0 0.00 0.00 0.00 48 1013.1
20260831171104 25 311 3.2 4.8 0.00 0.00 0.00 49 1013.0
20260831170109 24 254 3.2 4.8 0.00 0.00 0.00 50 1012.9
20260831165604 24 274 3.2 4.8 0.00 0.00 0.00 49 1012.9
20260831165110 23 298 3.2 4.8 0.00 0.00 0.00 50 1012.8
20260831164604 23 270 3.2 4.8 0.00 0.00 0.00 49 1012.9
20260831164105 23 273 3.2 4.8 0.00 0.00 0.00 52 1012.9
20260831163604 23 275 3.2 4.8 0.00 0.00 0.00 53 1012.9
20260831163104 22 263 1.6 4.8 0.00 0.00 0.00 53 1012.9
20260831162604 22 261 1.6 4.8 0.00 0.00 0.00 50 1013.0
20260831162104 22 269 1.6 4.8 0.00 0.00 0.00 49 1013.0
20260831161604 22 269 1.6 4.8 0.00 0.00 0.00 48 1013.0
20260831160604 21 260 3.2 4.8 0.00 0.00 0.00 50 1012.9
20260831160104 21 270 3.2 4.8 0.00 0.00 0.00 50 1012.9
20260831155604 21 270 3.2 4.8 0.00 0.00 0.00 51 1012.8
20260831155104 21 272 3.2 4.8 0.00 0.00 0.00 51 1012.8
20260831154604 21 254 3.2 4.8 0.00 0.00 0.00 50 1012.9
20260831153604 20 194 3.2 4.8 0.00 0.00 0.00 54 1012.8
20260831153104 20 152 0.0 4.8 0.00 0.00 0.00 57 1012.7
20260831152104 20 148 1.6 4.8 0.00 0.00 0.00 60 1012.5
20260831151604 20 148 1.6 4.8 0.00 0.00 0.00 61 1012.5
20260831151104 20 148 1.6 3.2 0.00 0.00 0.00 61 1012.5
20260831150107 20 148 0.0 3.2 0.00 0.00 0.00 64 1012.4
20260831145603 20 148 1.6 3.2 0.00 0.00 0.00 63 1012.4
20260831143604 18 148 0.0 0.0 0.00 0.00 0.00 60 1012.4
20260831143104 18 148 0.0 0.0 0.00 0.00 0.00 60 1012.4
20260831142604 18 148 0.0 0.0 0.00 0.00 0.00 62 1012.4
20260831142104 18 148 0.0 0.0 0.00 0.00 0.00 65 1012.4
20260831141104 18 148 0.0 0.0 0.00 0.00 0.00 65 1012.3
20260831140606 18 148 0.0 0.0 0.00 0.00 0.00 64 1012.3
20260831140104 18 148 0.0 1.6 0.00 0.00 0.00 63 1012.2
20260831135605 18 148 0.0 1.6 0.00 0.00 0.00 62 1012.2
20260831135104 18 148 1.6 1.6 0.00 0.00 0.00 61 1012.1
20260831134604 18 148 0.0 3.2 0.00 0.00 0.00 58 1012.1
20260831134104 18 148 0.0 3.2 0.00 0.00 0.00 54 1012.0
20260831133604 17 148 1.6 4.8 0.00 0.00 0.00 54 1012.0
20260831133104 17 148 3.2 4.8 0.00 0.00 0.00 56 1011.9
20260831132604 17 148 0.0 3.2 0.00 0.00 0.00 59 1011.9
20260831132104 17 148 0.0 1.6 0.00 0.00 0.00 56 1012.0
20260831131604 17 148 0.0 3.2 0.00 0.00 0.00 53 1011.9
20260831131104 17 148 0.0 4.8 0.00 0.00 0.00 52 1011.9
20260831130606 17 148 1.6 4.8 0.00 0.00 0.00 52 1011.9
20260831130107 17 148 0.0 0.0 0.00 0.00 0.00 62 1011.8
20260831125604 17 148 0.0 0.0 0.00 0.00 0.00 68 1011.8
20260831125107 17 148 0.0 0.0 0.00 0.00 0.00 71 1011.8
20260831124604 17 148 0.0 0.0 0.00 0.00 0.00 71 1011.7
20260831123604 17 148 0.0 1.6 0.00 0.00 0.00 70 1011.7
20260831123104 18 148 0.0 1.6 0.00 0.00 0.00 70 1011.8
20260831122604 18 148 0.0 0.0 0.00 0.00 0.00 71 1011.7
20260831121104 18 148 0.0 1.6 0.00 0.00 0.00 71 1011.7
20260831120605 18 148 0.0 1.6 0.00 0.00 0.00 72 1011.7
20260831120104 18 148 1.6 1.6 0.00 0.00 0.00 72 1011.7
20260831114604 18 148 0.0 0.0 0.00 0.00 0.00 73 1011.6
20260831114104 19 148 0.0 0.0 0.00 0.00 0.00 72 1011.6
20260831113104 18 148 0.0 0.0 0.00 0.00 0.00 69 1011.6
20260831112604 18 148 0.0 0.0 0.00 0.00 0.00 66 1011.6
20260831112104 18 148 0.0 0.0 0.00 0.00 0.00 66 1011.6
20260831111604 19 148 0.0 0.0 0.00 0.00 0.00 66 1011.6
20260831111104 19 148 0.0 1.6 0.00 0.00 0.00 67 1011.6
20260831110604 19 148 0.0 1.6 0.00 0.00 0.00 66 1011.6
20260831110109 19 148 0.0 1.6 0.00 0.00 0.00 65 1011.7
20260831105604 19 148 0.0 1.6 0.00 0.00 0.00 64 1011.7
20260831105109 19 148 0.0 1.6 0.00 0.00 0.00 63 1011.7
20260831104104 19 148 0.0 1.6 0.00 0.00 0.00 65 1011.8
20260831103604 19 148 0.0 1.6 0.00 0.00 0.00 66 1011.7
20260831103104 19 148 0.0 1.6 0.00 0.00 0.00 66 1011.7
20260831102104 20 148 0.0 1.6 0.00 0.00 0.00 66 1011.7
20260831101604 20 148 0.0 0.0 0.00 0.00 0.00 66 1011.7
20260831101104 20 148 0.0 1.6 0.00 0.00 0.00 67 1011.7
20260831100605 20 148 0.0 1.6 0.00 0.00 0.00 67 1011.7
20260831100105 20 148 0.0 1.6 0.00 0.00 0.00 68 1011.7
20260831095604 20 148 0.0 1.6 0.00 0.00 0.00 68 1011.7
20260831095104 20 148 0.0 0.0 0.00 0.00 0.00 68 1011.7
20260831094104 20 148 0.0 0.0 0.00 0.00 0.00 66 1011.6
20260831093603 20 148 0.0 0.0 0.00 0.00 0.00 64 1011.6
20260831092604 20 148 0.0 1.6 0.00 0.00 0.00 63 1011.7
20260831091604 20 148 0.0 1.6 0.00 0.00 0.00 58 1011.7
20260831091104 20 148 0.0 1.6 0.00 0.00 0.00 59 1011.7
20260831090604 20 148 1.6 1.6 0.00 0.00 0.00 59 1011.7
20260831090106 20 148 1.6 3.2 0.00 0.00 0.00 54 1011.7
20260831085604 20 148 1.6 3.2 0.00 0.00 0.00 51 1011.7
20260831085108 20 148 1.6 3.2 0.00 0.00 0.00 51 1011.7
20260831084605 20 148 0.0 1.6 0.00 0.00 0.00 50 1011.9
20260831084104 20 148 0.0 1.6 0.00 0.00 0.00 50 1011.9
20260831083603 21 148 0.0 1.6 0.00 0.00 0.00 50 1012.1
20260831083104 21 148 0.0 1.6 0.00 0.00 0.00 49 1012.0
20260831082603 21 148 0.0 1.6 0.00 0.00 0.00 50 1012.1
20260831082104 21 148 0.0 1.6 0.00 0.00 0.00 50 1012.1
20260831081604 21 148 0.0 0.0 0.00 0.00 0.00 51 1012.2
20260831081104 21 148 0.0 0.0 0.00 0.00 0.00 49 1012.1
20260831080604 21 148 0.0 1.6 0.00 0.00 0.00 50 1012.1
20260831080105 21 148 0.0 1.6 0.00 0.00 0.00 51 1012.0
20260831075603 21 148 0.0 1.6 0.00 0.00 0.00 52 1012.1
20260831075104 21 148 0.0 1.6 0.00 0.00 0.00 53 1012.1
20260831074604 21 148 0.0 1.6 0.00 0.00 0.00 53 1012.1
20260831074103 21 148 0.0 1.6 0.00 0.00 0.00 53 1012.0
20260831073604 21 148 0.0 1.6 0.00 0.00 0.00 52 1012.1
20260831072604 21 148 0.0 1.6 0.00 0.00 0.00 53 1012.0
20260831072104 22 148 0.0 0.0 0.00 0.00 0.00 54 1011.9
20260831071604 22 148 0.0 1.6 0.00 0.00 0.00 53 1011.9
20260831071104 22 148 0.0 1.6 0.00 0.00 0.00 51 1012.0
20260831070603 22 148 0.0 1.6 0.00 0.00 0.00 50 1012.1
20260831070107 22 148 0.0 1.6 0.00 0.00 0.00 52 1012.0
20260831065604 22 148 0.0 0.0 0.00 0.00 0.00 54 1011.9
20260831065107 22 148 0.0 0.0 0.00 0.00 0.00 54 1012.0
20260831064604 22 148 0.0 0.0 0.00 0.00 0.00 55 1012.0
20260831064104 22 148 0.0 0.0 0.00 0.00 0.00 54 1012.0
20260831063603 22 148 0.0 0.0 0.00 0.00 0.00 54 1012.0
20260831063103 22 148 0.0 0.0 0.00 0.00 0.00 54 1012.0
20260831062603 22 148 0.0 0.0 0.00 0.00 0.00 53 1011.9
20260831062104 22 148 0.0 0.0 0.00 0.00 0.00 53 1011.9
20260831061104 22 148 0.0 0.0 0.00 0.00 0.00 50 1011.8
20260831060604 23 148 0.0 0.0 0.00 0.00 0.00 49 1011.8
20260831055604 23 148 0.0 0.0 0.00 0.00 0.00 47 1011.8
20260831055104 23 148 0.0 0.0 0.00 0.00 0.00 46 1011.7
20260831054603 23 148 0.0 0.0 0.00 0.00 0.00 45 1011.7
20260831054104 23 148 0.0 0.0 0.00 0.00 0.00 44 1011.8
20260831053604 23 148 0.0 0.0 0.00 0.00 0.00 44 1011.8
20260831053104 24 148 0.0 0.0 0.00 0.00 0.00 43 1011.8
20260831052603 24 148 0.0 3.2 0.00 0.00 0.00 44 1011.9
20260831052104 24 148 0.0 4.8 0.00 0.00 0.00 44 1011.8
20260831051104 24 148 0.0 3.2 0.00 0.00 0.00 42 1011.8
20260831050604 24 148 0.0 4.8 0.00 0.00 0.00 41 1011.7
20260831050106 25 148 1.6 4.8 0.00 0.00 0.00 40 1011.7
20260831045604 25 158 1.6 4.8 0.00 0.00 0.00 39 1011.6
20260831045109 25 177 1.6 4.8 0.00 0.00 0.00 39 1011.6
20260831044104 25 181 1.6 3.2 0.00 0.00 0.00 37 1011.6
20260831043604 25 182 1.6 3.2 0.00 0.00 0.00 36 1011.5
20260831043104 25 182 1.6 3.2 0.00 0.00 0.00 36 1011.5
20260831042604 25 182 1.6 3.2 0.00 0.00 0.00 35 1011.5
20260831042104 26 182 0.0 3.2 0.00 0.00 0.00 35 1011.5
20260831041604 26 182 0.0 1.6 0.00 0.00 0.00 35 1011.5
20260831040604 26 182 0.0 1.6 0.00 0.00 0.00 35 1011.4
20260831040104 26 182 0.0 1.6 0.00 0.00 0.00 35 1011.4
20260831035109 26 182 0.0 1.6 0.00 0.00 0.00 35 1011.1
20260831033104 26 182 0.0 3.2 0.00 0.00 0.00 35 1010.9
20260831032604 26 182 0.0 3.2 0.00 0.00 0.00 34 1010.9
20260831032103 26 181 1.6 3.2 0.00 0.00 0.00 34 1010.9
20260831031604 26 178 0.0 3.2 0.00 0.00 0.00 34 1010.8
20260831031106 27 178 0.0 1.6 0.00 0.00 0.00 34 1010.7
20260831030105 27 178 0.0 4.8 0.00 0.00 0.00 33 1010.6
20260831025604 27 178 0.0 4.8 0.00 0.00 0.00 32 1010.6
20260831025110 27 183 1.6 4.8 0.00 0.00 0.00 32 1010.5
20260831024604 27 186 0.0 8.0 0.00 0.00 0.00 32 1010.4
20260831024104 27 182 1.6 8.0 0.00 0.00 0.00 31 1010.4
20260831023104 28 163 0.0 8.0 0.00 0.00 0.00 32 1010.4
20260831022604 28 206 3.2 8.0 0.00 0.00 0.00 31 1010.3
20260831022104 28 167 1.6 9.7 0.00 0.00 0.00 31 1010.3
20260831020603 29 174 4.8 9.7 0.00 0.00 0.00 31 1010.3
20260831020105 29 197 4.8 8.0 0.00 0.00 0.00 30 1010.1
20260831015603 30 253 1.6 9.7 0.00 0.00 0.00 31 1010.1
20260831015104 30 254 3.2 9.7 0.00 0.00 0.00 31 1010.1
20260831014604 30 234 8.0 11.3 0.00 0.00 0.00 30 1010.0
20260831014104 30 247 4.8 12.9 0.00 0.00 0.00 30 1010.0
20260831013104 31 246 9.7 14.5 0.00 0.00 0.00 30 1010.2
20260831012104 31 262 8.0 16.1 0.00 0.00 0.00 29 1010.1
20260831011603 31 227 3.2 16.1 0.00 0.00 0.00 28 1010.0
20260831011104 31 248 6.4 16.1 0.00 0.00 0.00 27 1010.0
20260831010604 31 231 6.4 20.9 0.00 0.00 0.00 28 1010.0
20260831010107 31 249 8.0 20.9 0.00 0.00 0.00 28 1009.9
20260831005604 32 253 11.3 19.3 0.00 0.00 0.00 27 1009.9
20260831005109 32 239 6.4 19.3 0.00 0.00 0.00 28 1009.9
20260831003604 32 253 11.3 19.3 0.00 0.00 0.00 27 1009.7
20260831003104 32 215 9.7 20.9 0.00 0.00 0.00 26 1009.7
20260831002604 32 248 12.9 20.9 0.00 0.00 0.00 26 1009.7
20260831002104 33 250 9.7 19.3 0.00 0.00 0.00 26 1009.7
20260831001604 33 243 9.7 19.3 0.00 0.00 0.00 26 1009.7
20260831001103 33 227 9.7 19.3 0.00 0.00 0.00 26 1009.6
20260831000104 33 235 11.3 20.9 0.00 0.00 0.00 25 1009.6
20260830235604 33 260 9.7 19.3 0.00 0.00 0.00 26 1009.6
20260830234104 33 249 11.3 19.3 0.00 0.00 0.00 24 1009.6
20260830233604 33 239 9.7 22.5 0.00 0.00 0.00 26 1009.6